This is the latest recevied weather packets stored in our database for station/object VK3AFQ-13. If no packets are shown the sender has not sent any weather packets the latest 10 day(s).
| Time | Temp. | Humidity | Pressure | Rain* | Wind** | Luminosity | Snow |
|---|---|---|---|---|---|---|---|
| 1777543263 | 19.44° C | 43% | 1024.4 hPa | - | - | - | - |
| 1777542364 | 19.44° C | 43% | 1024.2 hPa | - | - | - | - |
| 1777541465 | 20° C | 42% | 1024.1 hPa | - | - | - | - |
| 1777540564 | 20.56° C | 42% | 1024.1 hPa | - | - | - | - |
| 1777539669 | 20.56° C | 41% | 1024.3 hPa | - | - | - | - |
| 1777538764 | 21.11° C | 41% | 1024.1 hPa | - | - | - | - |
| 1777537864 | 21.67° C | 40% | 1024 hPa | - | - | - | - |
| 1777536963 | 22.22° C | 39% | 1023.9 hPa | - | - | - | - |
| 1777536077 | 22.78° C | 38% | 1023.9 hPa | - | - | - | - |
| 1777535164 | 23.33° C | 37% | 1023.9 hPa | - | - | - | - |
| 1777534263 | 24.44° C | 36% | 1023.9 hPa | - | - | - | - |
| 1777533364 | 25° C | 34% | 1023.6 hPa | - | - | - | - |
| 1777532462 | 25° C | 34% | 1023.7 hPa | - | - | - | - |
| 1777531564 | 25.56° C | 33% | 1023.7 hPa | - | - | - | - |
| 1777530664 | 25.56° C | 32% | 1023.7 hPa | - | - | - | - |
| 1777529764 | 26.11° C | 30% | 1023.9 hPa | - | - | - | - |
| 1777528862 | 26.11° C | 30% | 1023.8 hPa | - | - | - | - |
| 1777527964 | 26.67° C | 30% | 1023.9 hPa | - | - | - | - |
| 1777527063 | 26.67° C | 30% | 1024 hPa | - | - | - | - |
| 1777526163 | 26.67° C | 30% | 1024.1 hPa | - | - | - | - |
| 1777525262 | 26.67° C | 29% | 1024.3 hPa | - | - | - | - |
| 1777524364 | 26.67° C | 29% | 1024.2 hPa | - | - | - | - |
| 1777523464 | 26.67° C | 28% | 1024.1 hPa | - | - | - | - |
| 1777522564 | 26.67° C | 30% | 1024.5 hPa | - | - | - | - |
| 1777521662 | 26.11° C | 30% | 1024.6 hPa | - | - | - | - |
* Rain since midnight (hover to see other rain measurements)
** Current wind speed in m/s (hover to see current wind gust speed)